Wind_Speed
29 28 27 28 26 25 26 25 26 25 26 26 25 24 24 23 22 20 20 20 21 21 20 19 18 19 20 20 21 21 21 20 20 21 21 20 20 19 20 20 20 21 21 21
30 29 29 29 27 26 26 26 28 29 29 27 27 26 26 25 23 23 22 22 22 21 22 21 20 21 20 21 22 22 22 22 21 21 21 21 21 22 22 22 22 22 22 22
30 29 30 29 27 28 29 28 29 30 30 29 28 27 27 26 25 26 25 25 24 25 24 23 22 23 22 21 22 22 23 23 22 22 22 22 23 23 24 24 24 24 24 24
31 30 32 29 28 29 29 29 29 29 29 29 30 29 28 27 26 26 27 27 27 26 26 25 25 24 23 23 23 23 23 24 24 24 23 24 24 24 24 26 26 26 26 26
32 33 32 31 29 28 29 29 29 29 29 29 29 29 28 27 27 27 28 29 29 28 27 27 27 26 25 25 25 25 25 24 25 25 25 25 25 26 26 27 27 26 26 27
31 33 33 29 26 25 26 28 28 28 28 29 29 28 28 29 30 29 28 28 30 29 29 29 28 28 27 27 27 27 27 26 26 26 27 27 28 28 28 28 28 28 28 28
30 31 30 28 25 25 27 27 27 28 28 27 27 27 29 30 30 30 30 30 29 29 30 30 30 30 30 30 29 28 29 28 27 27 27 28 28 29 29 29 29 29 29 29
29 29 27 26 26 26 27 26 26 27 27 27 27 28 29 29 30 30 30 29 30 30 30 30 30 30 30 30 30 30 30 31 29 28 28 28 29 30 30 31 31 31 31 30
29 29 27 25 25 26 27 26 26 27 27 27 27 29 29 29 30 31 30 29 30 31 31 31 31 31 31 31 32 32 32 32 31 29 29 30 30 30 30 30 31 31 31 31
28 27 27 25 26 26 27 27 26 26 27 26 27 28 29 29 29 29 29 29 29 30 31 31 30 31 31 32 32 32 33 34 32 31 31 31 31 31 31 31 32 32 32 31
30 30 28 27 28 28 27 27 28 28 27 28 28 28 29 28 28 28 28 28 28 29 29 29 30 31 31 31 32 32 33 33 33 31 30 31 31 31 31 32 32 31 31 31
31 30 30 29 27 27 27 26 26 27 29 29 29 28 28 28 29 29 29 28 28 28 29 29 30 31 31 32 32 32 33 34 33 32 31 31 31 31 32 33 33 31 31 31
32 32 31 30 29 28 27 28 28 27 28 28 28 28 27 29 29 29 28 28 28 29 29 29 30 30 31 31 32 33 33 33 32 32 32 32 32 32 32 32 32 32 32 32
32 31 31 30 30 29 29 28 28 28 29 29 28 28 29 30 30 30 30 30 29 29 30 30 31 31 31 32 32 32 33 33 32 32 32 31 32 33 32 32 32 32 32 32
32 31 30 31 30 30 29 29 29 29 29 29 28 28 29 29 30 31 31 31 31 30 30 31 31 31 32 32 32 32 32 32 31 32 32 32 32 32 32 31 32 32 32 31
32 32 30 30 29 30 30 29 29 29 28 29 28 28 28 28 29 30 31 31 31 31 31 31 31 31 32 32 33 32 32 31 31 30 30 30 30 31 31 31 31 31 31 31
31 30 29 29 28 28 27 28 30 30 28 28 28 28 28 29 29 30 31 31 31 31 30 31 31 31 31 31 31 31 31 31 30 29 29 29 29 30 30 30 30 30 30 31
30 30 29 28 28 28 28 27 27 27 28 27 28 28 28 29 30 30 30 31 31 30 30 30 31 31 31 31 30 30 29 29 29 29 29 30 29 29 29 28 29 29 29 29
29 29 29 28 28 28 28 27 26 26 26 27 28 28 28 29 29 29 29 29 29 30 29 30 30 30 30 30 30 29 29 28 29 29 29 29 29 29 29 28 28 28 28 28
29 29 29 28 28 29 29 29 28 28 28 28 28 28 27 27 28 28 28 29 29 29 29 29 29 29 29 29 28 28 28 28 28 28 27 27 27 28 27 27 27 27 27 28
29 30 30 30 30 30 30 30 29 28 28 28 27 27 27 27 28 28 29 29 29 29 29 28 28 28 28 27 27 27 27 26 26 25 25 25 25 25 25 25 26 26 26 26
27 28 29 29 29 29 29 28 28 28 28 27 26 26 27 28 28 28 28 28 28 28 28 27 28 27 27 27 26 26 26 26 26 25 25 25 25 25 25 25 25 25 25 25
26 27 27 27 27 28 28 28 28 27 25 25 25 26 26 27 27 27 27 27 27 27 27 27 26 25 25 25 25 25 25 25 25 25 25 24 24 24 24 25 25 25 25 25
23 24 25 26 25 25 25 25 26 25 24 24 24 25 26 25 26 26 26 27 27 26 26 25 24 24 23 24 23 23 23 23 23 23 23 23 22 23 23 24 23 23 24 25
21 22 23 23 22 22 22 23 23 23 23 24 24 24 25 25 24 24 25 25 25 25 26 25 24 24 24 24 23 23 22 22 22 22 22 22 22 22 23 23 24 24 25 25
19 19 20 20 20 21 21 22 22 21 20 21 22 23 23 24 24 24 24 24 24 24 24 23 23 24 23 23 23 23 23 23 22 22 22 22 23 23 23 24 24 25 25 25
18 18 18 18 20 20 21 21 20 20 20 21 21 22 23 23 24 23 23 22 23 23 23 23 23 23 23 24 24 23 22 22 22 22 22 22 23 23 23 24 24 24 24 25
Wind_Direction
247 244 245 248 249 249 252 257 260 261 263 268 272 276 279 282 279 278 281 284 283 279 283 282 285 287 289 289 289 287 287 286 285 284 284 283 284 285 287 290 292 293 293 291
248 246 245 247 248 249 249 253 257 261 262 264 267 271 275 278 279 282 281 281 282 281 282 283 285 285 284 286 287 287 286 284 283 282 282 282 282 283 285 287 289 290 292 290
246 247 246 245 244 247 249 253 259 262 264 263 266 270 274 276 278 283 280 280 281 281 282 283 283 283 281 285 287 287 286 284 283 283 283 283 282 282 283 284 286 287 288 289
245 247 249 250 247 249 252 254 258 262 263 265 267 269 272 274 276 278 280 279 281 282 282 284 286 285 285 285 285 284 284 284 283 281 281 281 280 281 283 284 284 285 285 285
247 247 251 253 254 253 254 255 258 261 263 265 266 268 271 275 276 277 278 280 282 282 282 281 283 283 284 284 285 284 283 283 283 283 282 281 280 281 282 281 283 283 285 285
248 248 250 253 254 256 256 256 258 261 264 267 268 269 271 273 276 276 277 279 280 281 281 280 281 280 281 282 281 282 283 283 282 281 281 281 281 281 281 281 282 282 284 285
247 249 250 252 251 253 254 256 259 262 266 268 270 273 273 274 277 276 275 278 279 279 280 279 280 280 281 282 279 280 281 282 282 282 282 281 281 281 281 281 282 283 283 283
243 247 251 256 256 254 257 258 260 264 267 269 269 272 274 275 279 280 280 279 279 279 279 281 281 280 280 281 279 278 279 280 282 282 282 281 280 280 280 281 282 284 284 283
245 249 252 256 258 260 261 261 262 265 268 271 273 275 276 278 279 281 282 281 279 279 279 280 281 280 280 280 280 278 278 279 280 281 282 281 281 280 281 281 282 283 284 283
245 248 250 252 253 258 261 263 264 266 268 270 273 275 278 280 281 283 285 284 281 279 279 280 281 281 282 282 281 280 281 280 279 279 280 282 282 282 281 281 281 283 282 282
243 247 250 251 254 256 262 264 265 267 269 272 275 276 277 279 281 283 283 284 282 281 282 281 281 283 283 283 283 283 284 285 282 279 278 280 281 281 281 281 281 281 282 283
243 248 251 254 254 256 261 265 267 270 271 271 273 275 276 278 280 281 282 282 282 282 282 282 283 284 283 284 284 284 286 284 284 282 281 281 280 280 281 280 279 280 281 282
245 248 252 254 255 257 261 266 269 273 273 274 274 274 276 279 282 282 282 284 283 283 282 281 282 283 285 286 287 286 285 282 282 282 281 280 279 279 279 279 279 280 280 280
244 248 252 254 255 258 261 265 270 273 274 275 276 278 279 281 282 283 283 285 285 285 282 281 282 283 284 286 288 288 286 283 281 281 281 280 279 279 278 278 279 279 279 279
243 247 251 253 254 257 259 262 267 270 273 277 281 281 282 283 282 283 285 287 287 285 283 282 282 283 285 287 288 288 288 287 284 282 281 280 278 279 280 279 278 278 278 278
244 247 249 252 254 255 257 260 265 269 273 278 280 281 282 281 282 284 285 287 287 286 284 283 282 284 286 287 287 287 287 287 286 284 282 280 279 279 279 278 278 279 278 278
244 247 250 251 252 254 255 258 263 269 275 278 280 281 281 281 282 284 285 286 287 287 285 285 286 286 286 287 287 287 287 287 286 285 283 282 282 283 281 278 278 279 279 279
245 247 250 253 255 257 259 264 266 270 275 279 280 280 280 281 281 284 285 285 286 287 286 287 288 289 288 287 286 286 286 286 285 286 285 283 284 284 282 280 279 277 278 280
247 250 252 255 257 260 265 268 270 272 276 280 282 284 283 282 282 284 287 287 288 289 290 289 288 288 289 288 286 285 285 285 285 286 286 284 284 283 281 280 279 278 279 282
247 250 252 254 257 260 264 268 271 274 278 282 284 285 285 284 286 288 290 290 291 292 292 292 288 287 287 287 286 285 285 285 284 284 285 284 283 282 281 279 280 280 281 283
247 250 252 255 258 261 263 265 269 274 278 281 283 283 283 284 285 287 289 290 291 292 294 293 291 289 288 287 287 287 287 287 285 283 284 285 283 281 280 282 282 283 284 285
249 251 254 256 259 262 264 265 267 271 275 277 280 282 283 284 285 287 289 290 290 291 292 291 290 289 289 288 288 288 287 286 285 285 286 286 284 281 281 283 283 283 284 285
252 253 255 258 261 263 265 266 267 270 274 277 280 282 285 286 286 287 290 291 292 292 292 292 291 290 289 289 290 290 287 285 284 284 286 285 284 283 283 284 284 284 284 285
254 255 258 261 263 264 267 267 268 271 274 277 279 281 284 285 286 287 290 291 291 291 291 292 292 291 291 290 290 290 290 288 286 286 287 285 285 284 284 285 285 285 287 289
258 260 262 264 264 265 267 268 269 271 274 276 279 281 283 286 288 288 289 290 291 292 292 293 292 290 289 288 287 289 291 291 290 289 287 287 286 286 286 286 287 287 288 289
263 263 264 266 266 267 268 267 267 270 273 275 278 282 285 288 289 289 290 291 291 292 292 291 290 289 288 288 288 288 290 291 290 288 288 288 287 286 287 289 290 289 288 288
263 266 268 269 269 268 269 269 269 273 276 279 281 283 285 288 289 290 291 292 292 292 291 290 289 289 288 288 288 288 289 289 288 289 289 289 289 289 290 290 291 291 288 288
Height
5867 5870 5872 5873 5874 5875 5876 5875 5876 5876 5877 5877 5877 5878 5878 5878 5877 5877 5877 5876 5875 5874 5872 5871 5871 5870 5869 5868 5866 5865 5863 5862 5861 5860 5858 5857 5856 5855 5854 5853 5852 5850 5849 5848
5860 5862 5864 5865 5867 5868 5869 5869 5869 5869 5870 5871 5871 5871 5871 5872 5871 5871 5870 5870 5869 5868 5867 5866 5865 5864 5863 5861 5860 5858 5857 5856 5855 5854 5853 5852 5851 5849 5848 5847 5846 5844 5843 5841
5853 5855 5856 5858 5861 5861 5861 5862 5862 5862 5864 5864 5864 5865 5865 5865 5864 5864 5864 5863 5862 5862 5860 5859 5857 5856 5855 5854 5853 5852 5850 5849 5848 5847 5846 5845 5844 5843 5842 5840 5839 5838 5836 5834
5845 5847 5848 5853 5853 5854 5854 5854 5855 5855 5856 5856 5857 5858 5858 5858 5858 5857 5857 5856 5856 5855 5854 5852 5850 5849 5848 5847 5846 5845 5844 5842 5840 5839 5838 5837 5836 5835 5834 5833 5832 5830 5829 5827
5837 5838 5840 5844 5845 5845 5846 5846 5847 5848 5848 5849 5850 5850 5851 5851 5851 5850 5849 5848 5848 5847 5846 5845 5844 5843 5841 5840 5839 5837 5836 5835 5833 5832 5831 5830 5828 5828 5827 5825 5824 5822 5821 5819
5829 5830 5832 5837 5838 5838 5839 5839 5840 5840 5841 5842 5843 5843 5844 5844 5843 5842 5842 5840 5839 5838 5838 5837 5836 5835 5834 5833 5831 5830 5829 5827 5826 5825 5823 5822 5821 5820 5818 5817 5815 5813 5812 5810
5822 5823 5825 5829 5831 5831 5832 5833 5833 5833 5834 5835 5835 5836 5836 5836 5835 5834 5834 5833 5832 5830 5829 5828 5828 5826 5825 5825 5823 5822 5820 5819 5817 5815 5814 5813 5812 5811 5809 5808 5806 5805 5803 5802
5815 5816 5820 5822 5823 5824 5825 5825 5826 5826 5827 5828 5828 5828 5827 5827 5826 5826 5825 5824 5823 5822 5821 5819 5818 5817 5816 5816 5814 5813 5811 5809 5807 5806 5805 5804 5803 5802 5800 5799 5797 5796 5794 5792
5808 5811 5813 5814 5815 5816 5817 5818 5819 5819 5819 5820 5820 5820 5820 5819 5818 5817 5816 5815 5814 5813 5812 5811 5809 5808 5807 5806 5804 5803 5802 5800 5799 5797 5796 5795 5794 5792 5791 5789 5788 5787 5785 5784
5801 5803 5805 5807 5808 5809 5810 5810 5811 5812 5812 5812 5812 5812 5811 5811 5810 5809 5808 5807 5805 5803 5802 5801 5800 5799 5797 5796 5795 5794 5793 5791 5789 5788 5786 5786 5784 5783 5782 5780 5779 5777 5776 5774
5793 5796 5798 5800 5801 5802 5802 5803 5803 5804 5804 5804 5804 5803 5803 5802 5801 5800 5799 5798 5796 5794 5793 5792 5791 5789 5788 5786 5785 5784 5783 5781 5779 5777 5777 5775 5774 5773 5772 5771 5769 5768 5766 5765
5785 5788 5790 5792 5793 5794 5795 5795 5796 5796 5796 5796 5795 5794 5794 5793 5792 5791 5790 5788 5787 5785 5784 5783 5781 5780 5778 5777 5775 5774 5773 5771 5769 5767 5766 5765 5764 5763 5762 5761 5759 5758 5757 5755
5778 5780 5782 5783 5785 5786 5787 5787 5788 5787 5787 5786 5785 5784 5784 5784 5783 5782 5781 5779 5778 5776 5775 5773 5772 5770 5769 5767 5765 5764 5763 5761 5760 5758 5757 5756 5755 5754 5752 5751 5749 5748 5747 5745
5770 5772 5773 5775 5776 5778 5778 5779 5779 5779 5778 5778 5777 5776 5775 5775 5774 5773 5771 5769 5768 5767 5765 5764 5763 5761 5759 5758 5756 5754 5752 5751 5750 5749 5747 5746 5744 5743 5742 5741 5740 5738 5737 5736
5761 5763 5765 5767 5768 5769 5770 5770 5771 5771 5771 5770 5769 5768 5767 5766 5765 5764 5762 5760 5758 5757 5756 5754 5753 5752 5750 5748 5747 5745 5743 5741 5740 5739 5737 5736 5734 5733 5732 5731 5730 5729 5727 5726
5753 5755 5757 5759 5760 5761 5761 5762 5762 5762 5762 5762 5762 5760 5759 5758 5757 5755 5753 5751 5749 5748 5746 5745 5743 5742 5740 5739 5737 5735 5733 5732 5730 5729 5727 5726 5725 5723 5722 5721 5720 5719 5717 5716
5745 5747 5749 5750 5751 5752 5753 5753 5753 5754 5754 5754 5753 5753 5751 5750 5748 5746 5744 5742 5740 5739 5737 5735 5733 5732 5730 5728 5727 5725 5724 5722 5721 5719 5718 5716 5715 5714 5712 5711 5710 5709 5708 5706
5737 5739 5740 5741 5743 5744 5744 5744 5744 5745 5745 5745 5745 5744 5742 5741 5739 5738 5736 5733 5731 5729 5727 5725 5723 5721 5720 5718 5717 5716 5714 5713 5712 5710 5708 5707 5705 5704 5703 5702 5701 5699 5698 5697
5729 5731 5733 5734 5735 5736 5736 5737 5737 5737 5737 5736 5736 5735 5733 5732 5730 5728 5727 5724 5722 5720 5718 5716 5714 5712 5710 5709 5708 5707 5705 5704 5702 5701 5699 5698 5697 5695 5694 5692 5691 5690 5689 5688
5721 5723 5725 5726 5727 5728 5728 5729 5729 5729 5728 5728 5727 5726 5725 5723 5721 5719 5717 5715 5713 5711 5708 5706 5705 5703 5701 5700 5699 5697 5696 5695 5693 5692 5690 5689 5688 5687 5685 5684 5683 5681 5681 5680
5713 5715 5716 5718 5719 5719 5720 5720 5721 5720 5720 5719 5718 5717 5716 5714 5712 5711 5709 5707 5704 5702 5700 5698 5696 5694 5693 5691 5690 5689 5687 5686 5684 5683 5682 5680 5679 5678 5676 5675 5674 5673 5672 5671
5706 5707 5709 5710 5711 5711 5711 5712 5712 5712 5711 5711 5710 5709 5707 5706 5704 5702 5700 5698 5696 5694 5692 5689 5687 5686 5684 5682 5681 5680 5679 5678 5676 5675 5674 5672 5671 5669 5668 5667 5666 5665 5664 5663
5699 5700 5701 5702 5703 5703 5704 5704 5704 5703 5702 5702 5701 5700 5699 5697 5695 5694 5692 5690 5688 5686 5684 5682 5679 5677 5676 5674 5673 5672 5670 5669 5668 5667 5665 5664 5663 5661 5660 5659 5658 5657 5656 5654
5692 5692 5693 5694 5695 5695 5696 5696 5696 5695 5695 5694 5693 5692 5691 5689 5688 5686 5684 5682 5680 5679 5676 5674 5672 5670 5668 5667 5665 5664 5663 5661 5660 5659 5657 5656 5655 5653 5652 5651 5650 5649 5647 5646
5685 5685 5686 5687 5688 5688 5689 5689 5689 5688 5687 5686 5685 5684 5683 5681 5680 5678 5676 5674 5673 5671 5669 5667 5665 5663 5661 5660 5658 5657 5656 5654 5653 5651 5650 5648 5647 5646 5645 5643 5642 5641 5639 5638
5679 5679 5680 5680 5681 5681 5682 5682 5681 5681 5680 5679 5678 5676 5675 5674 5672 5670 5668 5667 5665 5663 5661 5659 5657 5655 5653 5652 5651 5649 5648 5647 5645 5644 5642 5641 5639 5638 5637 5635 5634 5632 5630 5629
5673 5674 5674 5675 5674 5674 5674 5674 5674 5673 5672 5671 5670 5669 5668 5666 5665 5663 5661 5659 5657 5655 5653 5651 5650 5648 5646 5644 5643 5642 5640 5639 5638 5636 5635 5633 5632 5631 5629 5627 5625 5623 5621 5619